Tracking 21074 objects as of 11-Aug-2020
HD Live streaming from Space Station
objects crossing your sky now
Track the most recent launched group of Starlink satellites

TOS R/B

Track TOS R/B now!


NORAD ID: 22797
Int'l Code: 1993-058D
Perigee: 369.8 km
Apogee: 38,282.7 km
Inclination: 14.8 °
Period: 683.3 minutes
Semi major axis: 25697 km
RCS: 9.198 m2 (large)
Launch date: September 12, 1993
Source: United States (US)
Launch site: AIR FORCE EASTERN TEST RANGE (AFETR)

Note: This is a ROCKET BODY
aabbcc
Your satellite tracking list
Your tracking list is empty




NASA's NSSDC Master Catalog

Two Line Element Set (TLE):
1 22797U 93058D   20223.70420083 -.00000099 +00000-0 +21753-3 0  9995
2 22797 014.8404 120.9788 7376824 065.7603 351.6477 02.10752257203097
Source of the keplerian elements: AFSPC